Regional Weather Roundup
Issued by NWS Cleveland, OH

Home | Current Version | Previous Version | Text Only | Print | Product List | Glossary Off
Versions: 1 2 3 4 5 6 7 8 9 10 11 12 13 14 15 16 17 18 19 20 21 22 23 24 25 26 27 28 29 30 31 32 33 34 35 36 37 38 39 40 41 42 43 44 45 46 47 48 49 50

349
ASUS41 KCLE 220102
RWRCLE
OHIO REGIONAL WEATHER ROUNDUP
NATIONAL WEATHER SERVICE CLEVELAND, OH
900 PM EDT SAT OCT 21 2017

NOTE: "FAIR" INDICATES FEW OR NO CLOUDS BELOW 12,000 FEET WITH NO
SIGNIFICANT WEATHER AND/OR OBSTRUCTIONS TO VISIBILITY.

OHZ001>008-015>018-024>027-034-035-043-044-220200-
   NORTHWEST OHIO

CITY           SKY/WX    TMP DP  RH WIND       PRES   REMARKS
DEFIANCE       PTCLDY    64  42  44 S6        30.17R
FINDLAY        MOCLDY    61  42  49 S9        30.18S
TOLEDO EXPRESS MOCLDY    65  48  54 S6        30.17R
TOLEDO EXEC    CLOUDY    62  48  60 S5        30.18S
LIMA           PTCLDY    60  45  57 S9        30.19F
$$

OHZ009>014-019>023-028>033-038-089-220200-
   NORTHEAST OHIO

CITY           SKY/WX    TMP DP  RH WIND       PRES   REMARKS
CLE-HOPKINS    MOCLDY    63  50  62 S7        30.24S
CLE-LAKEFRONT  CLOUDY    67  48  50 S12       30.21F
CUY CO. ARPT   MOCLDY    68  46  45 S9        30.23F
LORAIN-ELYRIA  PTCLDY    62  47  57 S6        30.23S
ASHTABULA      PTCLDY    63  50  62 S5        30.26R
AKRON-CANTON   CLOUDY    62  49  62 S6        30.26S
WOOSTER        CLOUDY    52  48  86 SE3       30.25F
MANSFIELD      PTCLDY    61  51  70 S8        30.24S
YOUNGSTOWN     CLOUDY    63  51  65 S3        30.27R
$$

OHZ042-051>053-060>062-070>072-077>081-220200-
  SOUTHWEST OHIO

CITY           SKY/WX    TMP DP  RH WIND       PRES   REMARKS
CINC-COVINGTON CLOUDY    63  50  62 SE6       30.21S
CINC-LUNKEN    CLOUDY    55  54  96 CALM      30.23R
HAMILTON       CLOUDY    55  52  89 CALM      30.22S
DAYTON         CLOUDY    62  50  64 SE8       30.22S
WRIGHT-PAT AFB NOT AVBL
DAYTON GENERAL PTCLDY    62  50  64 SE7       30.21S
WILMINGTON     PTCLDY    60  52  74 SE5       30.23S
$$

OHZ036-037-039>041-045>050-054>059-063>069-073>076-082>088-220200-
  CENTRAL AND SOUTHEAST OHIO

CITY           SKY/WX    TMP DP  RH WIND       PRES   REMARKS
COLUMBUS       MOCLDY    65  53  65 SE6       30.23F
OSU AIRPORT    CLOUDY    65  51  60 S6        30.23S
BOLTON FIELD   PTCLDY    61  50  65 SE3       30.24S
RICKENBACK AFB PTCLDY    57  51  80 SE6       30.23F
NEWARK         PTCLDY    57  52  83 CALM      30.25R
MARION         CLOUDY    63  51  65 S8        30.23R
LANCASTER      PTCLDY    52  50  93 CALM      30.24F
ZANESVILLE     PTCLDY    61  53  75 CALM      30.26S
NEW PHILLY     NOT AVBL
$$




USA.gov is the U.S. government's official web portal to all federal, state and local government web resources and services.